This demonstration page uses our WeatherBlox Daily Observations layout. Learn more.

Left ArrowRight Arrow

38.20091, -84.87328

Hourly Observations for January 30, 2020

Temp ( °F °C ) Dew Point ( °F °C ) Humidity (%) Winds ( mph kmh ) Pressure ( in mb ) Visibility ( mi km ) Precip ( " mm )
12:53 am 00:53 Cloudy 32 0 30 -1.1 92 92 Calm 30.14 1021 9 14 0.00 0.00
1:53 am 01:53 Mostly Cloudy 33 0.6 29 -1.7 85 85 Calm 30.13 1020 10 16 0.00 0.00
2:53 am 02:53 Cloudy 33 0.6 29 -1.7 85 85 Calm 30.13 1020 10 16 0.00 0.00
3:53 am 03:53 Mostly Cloudy 33 0.6 28 -2.2 82 82 NNE 3 6 30.13 1020 10 16 0.00 0.00
4:53 am 04:53 Mostly Clear 32 0 28 -2.2 85 85 N 3 6 30.13 1020 10 16 0.00 0.00
5:53 am 05:53 Cloudy 32 0 28 -2.2 85 85 Calm 30.14 1021 10 16 0.00 0.00
6:53 am 06:53 Cloudy 32 0 28 -2.2 85 85 Calm 30.16 1021 10 16 0.00 0.00
7:53 am 07:53 Mostly Cloudy 31 -0.6 28 -2.2 89 89 Calm 30.19 1022 10 16 0.00 0.00
8:53 am 08:53 Sunny 32 0 28 -2.2 85 85 NNW 3 6 30.20 1023 10 16 0.00 0.00
9:53 am 09:53 Sunny 36 2.2 29 -1.7 76 76 ENE 5 7 30.21 1023 10 16 0.00 0.00
10:53 am 10:53 Sunny 38 3.3 29 -1.7 70 70 ENE 6 9 30.21 1023 10 16 0.00 0.00
11:48 am 11:48 Mostly Cloudy 39 4 28 -2 65 65 VRB 3 6 30.22 1023 10 16 0.00 0.00
11:53 am 11:53 Mostly Cloudy 39 3.9 29 -1.7 67 67 VRB 3 6 30.20 1023 10 16 0.00 0.00
12:51 pm 12:51 Partly Cloudy 43 6 30 -1 61 61 NE 3 6 30.18 1022 10 16 0.00 0.00
12:53 pm 12:53 Mostly Sunny 43 6.1 30 -1.1 60 60 Calm 30.17 1022 10 16 0.00 0.00
1:15 pm 13:15 Mostly Cloudy 43 6.1 29 -1.7 58 58 N 5 7 30.17 1022 10 16 0.00 0.00
1:39 pm 13:39 Partly Cloudy 42 5.6 29 -1.7 60 60 VRB 3 6 30.16 1021 10 16 0.00 0.00
1:53 pm 13:53 Sunny 45 7.2 30 -1.1 56 56 Calm 30.15 1021 10 16 0.00 0.00
2:53 pm 14:53 Sunny 43 6.1 28 -2.2 56 56 Calm 30.14 1021 10 16 0.00 0.00
3:53 pm 15:53 Cloudy 45 7.2 29 -1.7 54 54 Calm 30.14 1021 10 16 0.00 0.00
4:53 pm 16:53 Cloudy 44 6.7 29 -1.7 55 55 Calm 30.15 1021 10 16 0.00 0.00
5:53 pm 17:53 Cloudy 44 6.7 29 -1.7 55 55 Calm 30.16 1021 10 16 0.00 0.00
6:53 pm 18:53 Cloudy 43 6.1 30 -1.1 60 60 NNE 3 6 30.17 1022 10 16 0.00 0.00
7:53 pm 19:53 Cloudy 42 5.6 29 -1.7 60 60 N 5 7 30.18 1022 10 16 0.00 0.00
8:53 pm 20:53 Cloudy 41 5 29 -1.7 62 62 N 3 6 30.18 1022 10 16 0.00 0.00
9:53 pm 21:53 Cloudy 41 5 29 -1.7 62 62 NE 6 9 30.17 1022 10 16 0.00 0.00
10:53 pm 22:53 Cloudy 40 4.4 29 -1.7 65 65 ENE 7 11 30.18 1022 10 16 0.00 0.00
11:53 pm 23:53 Cloudy 39 3.9 29 -1.7 67 67 ENE 6 9 30.18 1022 10 16 0.00 0.00

Powered by AerisWeather